| time (UTC) | temp C | wind direction | speed KPH | gust KPH | rain 1hr cm | rain 24hr cm | rain mn cm | humidity % | barometer mb |
| 20260504173034 | 15 | 290 | 38.6 | 54.7 | 0.00 | 0.00 | 0.00 | 45 | 995.7 |
| 20260504173006 | 15 | 309 | 38.6 | 56.3 | 0.00 | 0.00 | 0.00 | 44 | 995.7 |
| 20260504172016 | 16 | 301 | 35.4 | 49.9 | 0.00 | 0.00 | 0.00 | 42 | 995.5 |
| 20260504171606 | 16 | 304 | 40.2 | 51.5 | 0.00 | 0.00 | 0.00 | 41 | 995.5 |
| 20260504171001 | 16 | 292 | 32.2 | 49.9 | 0.00 | 0.00 | 0.00 | 45 | 995.5 |
| 20260504150336 | 14 | 275 | 27.4 | 38.6 | 0.00 | 0.00 | 0.00 | 50 | 995.2 |
| 20260504140329 | 15 | 323 | 38.6 | 59.5 | 0.00 | 0.00 | 0.00 | 47 | 994.8 |
| 20260504130300 | 15 | 279 | 25.7 | 38.6 | 0.00 | 0.00 | 0.00 | 55 | 994.1 |
| 20260504120241 | 13 | 264 | 20.9 | 30.6 | 0.00 | 0.00 | 0.00 | 55 | 993.6 |
| 20260504110159 | 13 | 235 | 22.5 | 32.2 | 0.00 | 0.00 | 0.00 | 54 | 992.8 |
| 20260504110104 | 12 | 230 | 20.9 | 33.8 | 0.00 | 0.00 | 0.00 | 54 | 992.9 |
| 20260504100105 | 12 | 230 | 19.3 | 25.7 | 0.00 | 0.00 | 0.00 | 55 | 993.4 |
| 20260504081502 | 12 | 221 | 16.1 | 22.5 | 0.00 | 0.00 | 0.00 | 54 | 995.1 |
| 20260504081037 | 12 | 229 | 16.1 | 19.3 | 0.00 | 0.00 | 0.00 | 55 | 995.1 |
| 20260504080104 | 12 | 222 | 16.1 | 19.3 | 0.00 | 0.00 | 0.00 | 54 | 995.4 |
| 20260504070106 | 12 | 217 | 14.5 | 19.3 | 0.00 | 0.00 | 0.00 | 52 | 996.4 |
| 20260504050356 | 12 | 200 | 8.0 | 9.7 | 0.00 | 0.00 | 0.00 | 54 | 998.4 |
| 20260504050006 | 12 | 204 | 8.0 | 9.7 | 0.00 | 0.00 | 0.00 | 54 | 998.6 |
| 20260504045411 | 12 | 200 | 4.8 | 8.0 | 0.00 | 0.00 | 0.00 | 54 | 998.6 |
| 20260504044602 | 12 | 184 | 4.8 | 8.0 | 0.00 | 0.00 | 0.00 | 54 | 998.8 |
| 20260504044403 | 12 | 195 | 3.2 | 6.4 | 0.00 | 0.00 | 0.00 | 54 | 998.8 |
| 20260504043415 | 12 | 139 | 0.0 | 4.8 | 0.00 | 0.00 | 0.00 | 54 | 999.0 |
| 20260504043003 | 11 | 162 | 1.6 | 4.8 | 0.00 | 0.00 | 0.00 | 54 | 999.1 |
| 20260504041601 | 12 | 163 | 1.6 | 6.4 | 0.00 | 0.00 | 0.00 | 52 | 999.3 |
| 20260504041300 | 12 | 174 | 1.6 | 3.2 | 0.00 | 0.00 | 0.00 | 52 | 999.2 |
| 20260504040238 | 12 | 195 | 1.6 | 3.2 | 0.00 | 0.00 | 0.00 | 53 | 999.5 |
| 20260504040003 | 12 | 205 | 3.2 | 4.8 | 0.00 | 0.00 | 0.00 | 52 | 999.6 |
| 20260504035228 | 13 | 201 | 1.6 | 3.2 | 0.00 | 0.00 | 0.00 | 50 | 999.6 |
| 20260504034602 | 12 | 203 | 1.6 | 4.8 | 0.00 | 0.00 | 0.00 | 49 | 999.8 |
| 20260504034235 | 13 | 182 | 1.6 | 3.2 | 0.00 | 0.00 | 0.00 | 49 | 999.8 |
| 20260504033003 | 12 | 174 | 1.6 | 6.4 | 0.00 | 0.00 | 0.00 | 49 | 1000.1 |
| 20260504032022 | 13 | 179 | 3.2 | 4.8 | 0.00 | 0.00 | 0.00 | 50 | 1000.1 |
| 20260504031604 | 12 | 207 | 4.8 | 6.4 | 0.00 | 0.00 | 0.00 | 49 | 1000.3 |
| 20260504030007 | 13 | 211 | 3.2 | 4.8 | 0.00 | 0.00 | 0.00 | 46 | 1000.5 |
| 20260504025833 | 14 | 211 | 1.6 | 3.2 | 0.00 | 0.00 | 0.00 | 46 | 1000.4 |
| 20260504024836 | 15 | 211 | 1.6 | 3.2 | 0.00 | 0.00 | 0.00 | 44 | 1000.5 |
| 20260504024602 | 14 | 211 | 1.6 | 4.8 | 0.00 | 0.00 | 0.00 | 44 | 1000.4 |
| 20260504023826 | 15 | 211 | 0.0 | 3.2 | 0.00 | 0.00 | 0.00 | 44 | 1000.5 |
| 20260504023003 | 15 | 215 | 1.6 | 4.8 | 0.00 | 0.00 | 0.00 | 43 | 1000.5 |
| 20260504021654 | 15 | 216 | 4.8 | 6.4 | 0.00 | 0.00 | 0.00 | 43 | 1000.4 |
| 20260504021602 | 15 | 215 | 4.8 | 6.4 | 0.00 | 0.00 | 0.00 | 43 | 1000.4 |
| 20260504020622 | 15 | 215 | 4.8 | 6.4 | 0.00 | 0.00 | 0.00 | 43 | 1000.4 |
| 20260504020004 | 15 | 221 | 4.8 | 6.4 | 0.00 | 0.00 | 0.00 | 43 | 1000.5 |
| 20260504015600 | 16 | 221 | 1.6 | 3.2 | 0.00 | 0.00 | 0.00 | 41 | 1000.5 |
| 20260504014611 | 16 | 264 | 1.6 | 4.8 | 0.00 | 0.00 | 0.00 | 38 | 1000.6 |
| 20260504013439 | 17 | 269 | 3.2 | 6.4 | 0.00 | 0.00 | 0.00 | 38 | 1000.7 |
| 20260504013009 | 17 | 261 | 3.2 | 8.0 | 0.00 | 0.00 | 0.00 | 37 | 1000.8 |
| 20260504012450 | 18 | 274 | 4.8 | 6.4 | 0.00 | 0.00 | 0.00 | 36 | 1000.8 |
| 20260504011604 | 17 | 274 | 4.8 | 9.7 | 0.00 | 0.00 | 0.00 | 35 | 1000.8 |
| 20260504011504 | 18 | 273 | 4.8 | 8.0 | 0.00 | 0.00 | 0.00 | 35 | 1000.8 |
| 20260504010002 | 18 | 281 | 6.4 | 8.0 | 0.00 | 0.00 | 0.00 | 32 | 1000.8 |
| 20260504004643 | 18 | 291 | 6.4 | 9.7 | 0.00 | 0.00 | 0.00 | 32 | 1000.8 |
| 20260504003136 | 19 | 287 | 9.7 | 17.7 | 0.00 | 0.00 | 0.00 | 33 | 1000.9 |
| 20260504003005 | 19 | 285 | 9.7 | 19.3 | 0.00 | 0.00 | 0.00 | 32 | 1000.9 |
| 20260504001623 | 19 | 281 | 9.7 | 22.5 | 0.00 | 0.00 | 0.00 | 33 | 1001.1 |
| 20260504001038 | 20 | 285 | 14.5 | 24.1 | 0.00 | 0.00 | 0.00 | 30 | 1001.1 |
| 20260504000031 | 20 | 277 | 20.9 | 27.4 | 0.00 | 0.00 | 0.00 | 28 | 1001.1 |
| 20260504000002 | 20 | 283 | 20.9 | 29.0 | 0.00 | 0.00 | 0.00 | 28 | 1001.1 |
| 20260503234606 | 20 | 278 | 17.7 | 29.0 | 0.00 | 0.00 | 0.00 | 29 | 1001.1 |
| 20260503233934 | 20 | 298 | 16.1 | 32.2 | 0.00 | 0.00 | 0.00 | 32 | 1001.1 |
| 20260503233006 | 20 | 298 | 11.3 | 33.8 | 0.00 | 0.00 | 0.00 | 32 | 1001.3 |
| 20260503232908 | 20 | 302 | 19.3 | 32.2 | 0.00 | 0.00 | 0.00 | 31 | 1001.2 |
| 20260503231838 | 20 | 283 | 17.7 | 29.0 | 0.00 | 0.00 | 0.00 | 30 | 1001.3 |
| 20260503231603 | 20 | 309 | 16.1 | 29.0 | 0.00 | 0.00 | 0.00 | 30 | 1001.4 |
| 20260503230828 | 20 | 300 | 17.7 | 29.0 | 0.00 | 0.00 | 0.00 | 30 | 1001.3 |
| 20260503230002 | 20 | 285 | 16.1 | 27.4 | 0.00 | 0.00 | 0.00 | 30 | 1001.4 |
| 20260503224718 | 21 | 278 | 16.1 | 25.7 | 0.00 | 0.00 | 0.00 | 32 | 1001.5 |
| 20260503224609 | 20 | 283 | 17.7 | 27.4 | 0.00 | 0.00 | 0.00 | 33 | 1001.6 |
| 20260503223722 | 20 | 304 | 17.7 | 29.0 | 0.00 | 0.00 | 0.00 | 32 | 1001.5 |
| 20260503223002 | 20 | 305 | 19.3 | 30.6 | 0.00 | 0.00 | 0.00 | 30 | 1001.7 |
| 20260503221605 | 20 | 296 | 22.5 | 33.8 | 0.00 | 0.00 | 0.00 | 29 | 1001.7 |
| 20260503221545 | 20 | 309 | 19.3 | 32.2 | 0.00 | 0.00 | 0.00 | 29 | 1001.6 |
| 20260503220003 | 20 | 300 | 14.5 | 30.6 | 0.00 | 0.00 | 0.00 | 30 | 1001.7 |
| 20260503215436 | 20 | 311 | 22.5 | 33.8 | 0.00 | 0.00 | 0.00 | 30 | 1001.7 |
| 20260503214604 | 20 | 300 | 20.9 | 35.4 | 0.00 | 0.00 | 0.00 | 28 | 1001.7 |
| 20260503214439 | 20 | 279 | 24.1 | 38.6 | 0.00 | 0.00 | 0.00 | 30 | 1001.7 |
| 20260503213007 | 20 | 316 | 29.0 | 40.2 | 0.00 | 0.00 | 0.00 | 30 | 1001.9 |
| 20260503212244 | 20 | 309 | 24.1 | 35.4 | 0.00 | 0.00 | 0.00 | 33 | 1001.8 |
| 20260503211606 | 20 | 314 | 29.0 | 37.0 | 0.00 | 0.00 | 0.00 | 32 | 1001.9 |
| 20260503211303 | 20 | 313 | 19.3 | 33.8 | 0.00 | 0.00 | 0.00 | 35 | 1001.8 |
| 20260503210244 | 20 | 293 | 20.9 | 33.8 | 0.00 | 0.00 | 0.00 | 36 | 1001.9 |
| 20260503210002 | 20 | 304 | 24.1 | 33.8 | 0.00 | 0.00 | 0.00 | 34 | 1002.0 |
| 20260503205251 | 20 | 309 | 17.7 | 30.6 | 0.00 | 0.00 | 0.00 | 34 | 1002.1 |
| 20260503204601 | 20 | 309 | 16.1 | 27.4 | 0.00 | 0.00 | 0.00 | 35 | 1002.2 |
| 20260503203058 | 20 | 276 | 20.9 | 33.8 | 0.00 | 0.00 | 0.00 | 35 | 1002.5 |
| 20260503203006 | 20 | 311 | 19.3 | 35.4 | 0.00 | 0.00 | 0.00 | 35 | 1002.5 |
| 20260503202033 | 19 | 299 | 14.5 | 30.6 | 0.00 | 0.00 | 0.00 | 35 | 1002.4 |
| 20260503201502 | 19 | 312 | 11.3 | 32.2 | 0.00 | 0.00 | 0.00 | 36 | 1002.5 |
| 20260503200107 | 19 | 326 | 14.5 | 30.6 | 0.00 | 0.00 | 0.00 | 33 | 1002.7 |
| 20260503194756 | 19 | 304 | 22.5 | 37.0 | 0.00 | 0.00 | 0.00 | 35 | 1003.0 |
| 20260503194502 | 19 | 314 | 22.5 | 38.6 | 0.00 | 0.00 | 0.00 | 38 | 1003.0 |
| 20260503193808 | 19 | 312 | 22.5 | 40.2 | 0.00 | 0.00 | 0.00 | 34 | 1003.0 |
| 20260503193101 | 19 | 304 | 24.1 | 43.5 | 0.00 | 0.00 | 0.00 | 35 | 1003.1 |
| 20260503192751 | 19 | 314 | 27.4 | 41.8 | 0.00 | 0.00 | 0.00 | 34 | 1003.0 |
| 20260503191502 | 18 | 316 | 22.5 | 45.1 | 0.00 | 0.00 | 0.00 | 36 | 1002.9 |
| 20260503190609 | 18 | 323 | 25.7 | 43.5 | 0.00 | 0.00 | 0.00 | 35 | 1003.0 |
| 20260503190110 | 18 | 321 | 24.1 | 38.6 | 0.00 | 0.00 | 0.00 | 37 | 1003.1 |
| 20260503185549 | 18 | 301 | 27.4 | 38.6 | 0.00 | 0.00 | 0.00 | 37 | 1003.1 |
| 20260503184608 | 19 | 323 | 25.7 | 35.4 | 0.00 | 0.00 | 0.00 | 37 | 1003.1 |
| 20260503184502 | 18 | 282 | 29.0 | 35.4 | 0.00 | 0.00 | 0.00 | 37 | 1003.1 |
| 20260503183621 | 19 | 300 | 22.5 | 35.4 | 0.00 | 0.00 | 0.00 | 41 | 1003.1 |
| 20260503183104 | 18 | 330 | 17.7 | 35.4 | 0.00 | 0.00 | 0.00 | 44 | 1003.3 |
| 20260503182611 | 18 | 307 | 20.9 | 38.6 | 0.00 | 0.00 | 0.00 | 40 | 1003.2 |
| 20260503181625 | 18 | 328 | 22.5 | 38.6 | 0.00 | 0.00 | 0.00 | 41 | 1003.3 |
| 20260503181504 | 18 | 351 | 16.1 | 40.2 | 0.00 | 0.00 | 0.00 | 40 | 1003.4 |
| 20260503180609 | 18 | 320 | 20.9 | 35.4 | 0.00 | 0.00 | 0.00 | 40 | 1003.4 |
| 20260503180105 | 18 | 317 | 25.7 | 37.0 | 0.00 | 0.00 | 0.00 | 42 | 1003.5 |
| 20260503174519 | 18 | 309 | 20.9 | 33.8 | 0.00 | 0.00 | 0.00 | 42 | 1003.5 |
| 20260503174503 | 18 | 293 | 20.9 | 35.4 | 0.00 | 0.00 | 0.00 | 42 | 1003.6 |